Masset current weather conditions

sailwx.info

Wind at 4 knots

Air temperature -0.0° C
Visibility: greater than 12.2 NM
Dewpoint -1.0° C
Present weather: Light snow.

Last reported at 2016-Dec-10 01:00 UTC.
Time now 2016-Dec-10 03:03 UTC

Location: N 54°02' W 132°08'.
View on Google Maps.

See reports from other nearby stations

  
Tides and Currents Weather Stations Pressure Air Temp Water Temp Dewpoint Dewpoint Depression Visibility Wind Speed Wind Dir Waves Ship Positions
date/time (UTC)wind fromknots sea level pressurealtimeterstation pressurevisibilityair tempwater tempwave heightnotes
2016-Dec-10 01:00 12.2-0.0 Light snow.
2016-Dec-10 00:30 10.4-0.0 Light snow.
2016-Dec-10 00:00 1.3-0.0 Light snow.
2016-Dec-09 23:52 110 5 10.4-0.0 Light snow showers.
2016-Dec-09 23:29 090 2 1.3-0.0 Light snow showers.
2016-Dec-09 23:17 8.7-0.0 Light snow showers.
2016-Dec-09 23:00 1.3-0.0 Light snow showers.
2016-Dec-09 22:44 100 6 10.4-0.0 Light snow.
2016-Dec-09 22:28 1.7 1.0 Light snow showers.
2016-Dec-09 22:13 8.7 1.0 Light snow showers.
2016-Dec-09 22:00 13.0 1.0 Light snow.
2016-Dec-09 21:37 110 6 13.0 1.0 Light snow showers.
2016-Dec-09 21:24 120 4 10.4 1.0 Light snow showers.
2016-Dec-09 21:19 140 4 1.7 1.0 Light snow showers.
2016-Dec-09 21:15 130 6 0.9 1.0 Light snow showers.
2016-Dec-09 21:00 150 6 1.7 1.0 Light snow showers.
2016-Dec-09 20:50 130 6 13.0 2.0 Light snow showers.
2016-Dec-09 20:30 140 6 13.0 3.0 Light snow showers.
2016-Dec-09 20:00 130 2 13.0 3.0
2016-Dec-09 19:00 110 2 13.0 3.0
2016-Dec-09 18:00 120 2 13.0 2.0
2016-Dec-09 17:00 13.0 1.0
2016-Dec-09 16:00 120 5 13.0 2.0
2016-Dec-09 15:00 090 6 13.0 2.0
2016-Dec-09 02:00 110 4 13.0 1.0
2016-Dec-09 01:00 110 2 13.0 1.0
2016-Dec-09 00:00 110 4 13.0 1.0
2016-Dec-08 23:00 110 2 13.0 2.0
2016-Dec-08 22:00 130 2 13.0 2.0
2016-Dec-08 21:00 100 4 13.0 2.0
2016-Dec-08 20:00 100 2 13.0 1.0
2016-Dec-08 19:00 100 1 13.0 1.0
2016-Dec-08 18:00 13.0-0.0
2016-Dec-08 17:00 13.0-2.0
2016-Dec-08 16:00 130 2 13.0-1.0
2016-Dec-08 15:00 13.0-2.0